GW0212 Weather Reports


Display with metric or nautical units.
time (UTC)temp
F
wind
direction
speed
MPH
gust
MPH
rain 1hr
in
rain 24hr
in
rain mn
in
humidity
%
barometer
mb
20260505164025 72 0 2.0 7.0 0.00 0.00 0.00 44 1016.0
20260505163529 72 327 1.0 6.0 0.00 0.00 0.00 48 1016.0
20260505163043 72 81 1.0 6.0 0.00 0.00 0.00 46 1016.1
20260505162538 71 44 1.0 11.0 0.00 0.00 0.00 44 1016.0
20260505162026 71 289 1.0 11.0 0.00 0.00 0.00 49 1016.1
20260505161540 71 310 2.0 9.0 0.00 0.00 0.00 48 1016.0
20260505161025 71 343 2.0 9.0 0.00 0.00 0.00 48 1016.1
20260505160529 71 312 2.0 14.0 0.00 0.00 0.00 47 1016.0
20260505153045 68 39 0.0 3.0 0.00 0.00 0.00 50 1016.1
20260505152526 68 12 1.0 3.0 0.00 0.00 0.00 49 1016.2
20260505152025 68 62 1.0 4.0 0.00 0.00 0.00 48 1016.5
20260505151541 68 0 0.0 4.0 0.00 0.00 0.00 49 1016.5
20260505151025 68 325 2.0 4.0 0.00 0.00 0.00 49 1016.7
20260505150525 67 0 2.0 4.0 0.00 0.00 0.00 50 1016.7
20260505140525 58 0 0.0 2.0 0.00 0.00 0.00 79 1016.5
20260505125025 46 0 0.0 0.0 0.00 0.00 0.00 97 1016.5
20260505124540 46 0 0.0 1.0 0.00 0.00 0.00 97 1016.5
20260505124026 45 0 0.0 1.0 0.00 0.00 0.00 97 1016.4
20260505123526 45 0 0.0 1.0 0.00 0.00 0.00 97 1016.4
20260505123048 44 0 0.0 0.0 0.00 0.00 0.00 97 1016.5
20260505122525 44 0 0.0 1.0 0.00 0.00 0.00 97 1016.5
20260505122028 43 0 0.0 1.0 0.00 0.00 0.00 97 1016.5
20260505121537 42 0 0.0 0.0 0.00 0.00 0.00 97 1016.4
20260505121025 41 0 0.0 0.0 0.00 0.00 0.00 97 1016.4
20260505120524 41 0 0.0 0.0 0.00 0.00 0.00 97 1016.3
20260505120054 40 0 0.0 0.0 0.00 0.00 0.00 96 1016.3
20260505115524 40 0 0.0 0.0 0.00 0.00 0.00 96 1016.2
20260505115025 40 0 0.0 1.0 0.00 0.00 0.00 96 1016.2
20260505114540 39 0 0.0 1.0 0.00 0.00 0.00 96 1016.1
20260505114025 39 0 0.0 0.0 0.00 0.00 0.00 96 1015.9
20260505113525 39 0 0.0 0.0 0.00 0.00 0.00 96 1015.9
20260505113038 39 0 0.0 0.0 0.00 0.00 0.00 95 1015.9
20260505112525 39 0 0.0 0.0 0.00 0.00 0.00 95 1015.7
20260505112025 39 0 0.0 0.0 0.00 0.00 0.00 95 1015.6
20260505111536 39 0 0.0 0.0 0.00 0.00 0.00 95 1015.7
20260505111025 39 0 0.0 0.0 0.00 0.00 0.00 95 1015.7
20260505110525 39 0 0.0 1.0 0.00 0.00 0.00 95 1015.7
20260505102029 40 0 0.0 0.0 0.00 0.00 0.00 93 1015.4
20260505101536 40 0 0.0 0.0 0.00 0.00 0.00 93 1015.4
20260505101025 40 0 0.0 0.0 0.00 0.00 0.00 93 1015.4
20260505100525 40 0 0.0 0.0 0.00 0.00 0.00 93 1015.5
20260505100035 40 0 0.0 1.0 0.00 0.00 0.00 93 1015.6
20260505095525 40 0 0.0 2.0 0.00 0.00 0.00 93 1015.6
20260505095025 40 0 0.0 2.0 0.00 0.00 0.00 93 1015.6
20260505094535 40 0 0.0 1.0 0.00 0.00 0.00 93 1015.6
20260505094025 41 0 0.0 1.0 0.00 0.00 0.00 93 1015.5
20260505093525 41 0 0.0 1.0 0.00 0.00 0.00 92 1015.5
20260505093040 41 0 0.0 0.0 0.00 0.00 0.00 92 1015.6
20260505092526 41 0 0.0 1.0 0.00 0.00 0.00 92 1015.5
20260505092025 41 0 0.0 1.0 0.00 0.00 0.00 92 1015.5
20260505091536 41 0 0.0 1.0 0.00 0.00 0.00 92 1015.5
20260505091025 41 129 0.0 1.0 0.00 0.00 0.00 92 1015.5
20260505090525 41 0 0.0 0.0 0.00 0.00 0.00 92 1015.5
20260505090037 41 0 0.0 1.0 0.00 0.00 0.00 91 1015.5
20260505085526 42 0 0.0 1.0 0.00 0.00 0.00 91 1015.6
20260505085025 42 0 0.0 1.0 0.00 0.00 0.00 91 1015.5
20260505084544 42 0 0.0 1.0 0.00 0.00 0.00 91 1015.6
20260505084025 42 0 0.0 1.0 0.00 0.00 0.00 91 1015.5
20260505083529 42 0 0.0 1.0 0.00 0.00 0.00 91 1015.5
20260505083051 42 0 0.0 0.0 0.00 0.00 0.00 91 1015.5
20260505082525 42 0 0.0 0.0 0.00 0.00 0.00 91 1015.5
20260505082025 42 0 0.0 0.0 0.00 0.00 0.00 91 1015.6
20260505081536 42 0 0.0 0.0 0.00 0.00 0.00 91 1015.5
20260505081029 42 0 0.0 0.0 0.00 0.00 0.00 90 1015.5
20260505080526 43 0 0.0 1.0 0.00 0.00 0.00 90 1015.4
20260505080033 43 0 0.0 1.0 0.00 0.00 0.00 90 1015.3
20260505075524 43 0 0.0 0.0 0.00 0.00 0.00 90 1015.4
20260505075026 43 0 0.0 0.0 0.00 0.00 0.00 90 1015.4
20260505074541 43 0 0.0 1.0 0.00 0.00 0.00 90 1015.3
20260505074025 43 0 0.0 2.0 0.00 0.00 0.00 90 1015.3
20260505073525 43 0 0.0 2.0 0.00 0.00 0.00 90 1015.1
20260505073046 44 128 0.0 2.0 0.00 0.00 0.00 90 1015.4
20260505072525 44 0 0.0 0.0 0.00 0.00 0.00 90 1015.3
20260505072027 44 0 0.0 0.0 0.00 0.00 0.00 90 1015.3
20260505071536 44 0 0.0 0.0 0.00 0.00 0.00 90 1015.3
20260505071026 44 0 0.0 0.0 0.00 0.00 0.00 90 1015.4
20260505070528 44 0 0.0 1.0 0.00 0.00 0.00 89 1015.4
20260505070037 44 0 0.0 1.0 0.00 0.00 0.00 89 1015.3
20260505065524 44 0 0.0 1.0 0.00 0.00 0.00 89 1015.4
20260505065025 44 0 0.0 1.0 0.00 0.00 0.00 89 1015.3
20260505064608 44 0 0.0 1.0 0.00 0.00 0.00 89 1015.4
20260505064025 45 0 0.0 1.0 0.00 0.00 0.00 89 1015.3
20260505063527 45 0 0.0 2.0 0.00 0.00 0.00 89 1015.4
20260505063040 45 0 0.0 2.0 0.00 0.00 0.00 89 1015.4
20260505062525 45 129 0.0 2.0 0.00 0.00 0.00 89 1015.5
20260505062025 45 0 0.0 2.0 0.00 0.00 0.00 89 1015.4
20260505061538 45 129 0.0 2.0 0.00 0.00 0.00 88 1015.5
20260505061025 45 0 0.0 2.0 0.00 0.00 0.00 88 1015.6
20260505060525 45 0 0.0 2.0 0.00 0.00 0.00 88 1015.7
20260505060034 45 0 0.0 1.0 0.00 0.00 0.00 88 1015.7
20260505055525 45 0 0.0 1.0 0.00 0.00 0.00 88 1015.6
20260505055022 46 0 0.0 2.0 0.00 0.00 0.00 88 1015.7
20260505054546 46 0 0.0 2.0 0.00 0.00 0.00 88 1015.6
20260505054025 46 0 0.0 2.0 0.00 0.00 0.00 87 1015.6
20260505053525 46 0 0.0 2.0 0.00 0.00 0.00 87 1015.6
20260505053042 46 0 0.0 2.0 0.00 0.00 0.00 88 1015.8
20260505052525 46 129 0.0 2.0 0.00 0.00 0.00 88 1015.8
20260505052026 46 0 0.0 2.0 0.00 0.00 0.00 88 1015.6
20260505051537 46 0 0.0 2.0 0.00 0.00 0.00 88 1015.4
20260505051025 46 129 0.0 2.0 0.00 0.00 0.00 88 1015.4
20260505050525 46 0 0.0 2.0 0.00 0.00 0.00 88 1015.5
20260505041539 47 0 0.0 1.0 0.00 0.00 0.00 86 1015.3
20260505041025 47 0 0.0 2.0 0.00 0.00 0.00 86 1015.5
20260505040520 47 0 0.0 2.0 0.00 0.00 0.00 86 1015.5
20260505040039 48 129 0.0 1.0 0.00 0.00 0.00 86 1015.5
20260505035522 48 0 0.0 1.0 0.00 0.00 0.00 86 1015.5
20260505035023 48 0 0.0 1.0 0.00 0.00 0.00 86 1015.5
20260505034539 48 0 0.0 1.0 0.00 0.00 0.00 85 1015.6
20260505034024 48 0 0.0 1.0 0.00 0.00 0.00 85 1015.7
20260505033521 48 0 0.0 1.0 0.00 0.00 0.00 85 1015.8
20260505033042 48 0 0.0 1.0 0.00 0.00 0.00 85 1015.8
20260505032521 48 0 0.0 1.0 0.00 0.00 0.00 84 1015.9
20260505032020 49 0 0.0 2.0 0.00 0.00 0.00 84 1015.9
20260505031542 49 0 0.0 2.0 0.00 0.00 0.00 84 1016.0
20260505031020 49 0 0.0 2.0 0.00 0.00 0.00 84 1016.1
20260505030520 49 0 0.0 1.0 0.00 0.00 0.00 84 1015.9
20260505030047 49 0 0.0 1.0 0.00 0.00 0.00 83 1016.0
20260505025521 50 127 0.0 0.0 0.00 0.00 0.00 83 1016.1
20260505025020 50 0 0.0 1.0 0.00 0.00 0.00 83 1016.1
20260505024536 50 0 0.0 1.0 0.00 0.00 0.00 83 1016.1
20260505024021 50 0 0.0 1.0 0.00 0.00 0.00 82 1016.0
20260505023521 51 0 0.0 1.0 0.00 0.00 0.00 81 1016.0
20260505023042 51 0 0.0 1.0 0.00 0.00 0.00 81 1016.0
20260505022521 51 0 0.0 1.0 0.00 0.00 0.00 81 1015.9
20260505022021 52 0 0.0 1.0 0.00 0.00 0.00 80 1015.8
20260505021536 52 0 0.0 1.0 0.00 0.00 0.00 80 1015.7
20260505021024 52 0 0.0 1.0 0.00 0.00 0.00 79 1015.6
20260505020521 53 0 0.0 1.0 0.00 0.00 0.00 79 1015.6
20260505020038 53 0 0.0 1.0 0.00 0.00 0.00 78 1015.7
20260505015521 54 0 0.0 2.0 0.00 0.00 0.00 78 1015.6
20260505015021 54 0 0.0 2.0 0.00 0.00 0.00 77 1015.5
20260505014542 55 129 0.0 1.0 0.00 0.00 0.00 77 1015.5
20260505014020 55 0 0.0 1.0 0.00 0.00 0.00 76 1015.5
20260505013522 56 0 0.0 1.0 0.00 0.00 0.00 75 1015.4
20260505013040 56 0 0.0 1.0 0.00 0.00 0.00 72 1015.3
20260505012522 57 0 0.0 1.0 0.00 0.00 0.00 72 1015.2
20260505012021 57 0 0.0 1.0 0.00 0.00 0.00 70 1015.4
20260505011536 58 0 0.0 1.0 0.00 0.00 0.00 71 1015.4
20260505011024 59 0 0.0 2.0 0.00 0.00 0.00 69 1015.3
20260505010523 59 0 0.0 2.0 0.00 0.00 0.00 67 1015.2
20260505010035 60 133 0.0 2.0 0.00 0.00 0.00 67 1015.3
20260505005521 60 0 0.0 2.0 0.00 0.00 0.00 65 1015.1
20260505005021 61 0 0.0 3.0 0.00 0.00 0.00 65 1015.0
20260505004555 61 132 0.0 4.0 0.00 0.00 0.00 63 1015.0
20260505004021 61 132 1.0 4.0 0.00 0.00 0.00 64 1015.0
20260505003525 62 285 0.0 2.0 0.00 0.00 0.00 62 1014.8
20260505003039 62 0 0.0 2.0 0.00 0.00 0.00 61 1014.8
20260505002521 63 0 0.0 3.0 0.00 0.00 0.00 60 1014.7
20260505002020 64 0 0.0 4.0 0.00 0.00 0.00 59 1014.8
20260505001539 64 0 1.0 4.0 0.00 0.00 0.00 60 1014.5
20260505001022 65 10 1.0 3.0 0.00 0.00 0.00 57 1014.5
20260505000520 65 0 0.0 3.0 0.00 0.00 0.00 58 1014.5
20260505000037 66 0 0.0 2.0 0.00 0.00 0.00 56 1014.5
20260504235520 66 0 0.0 2.0 0.00 0.00 0.00 56 1014.4
20260504235024 67 0 0.0 2.0 0.00 0.00 0.00 53 1014.4
20260504234535 67 0 0.0 6.0 0.00 0.00 0.00 54 1014.3
20260504234023 67 340 0.0 6.0 0.00 0.00 0.00 54 1014.3
20260504233521 67 65 1.0 4.0 0.00 0.00 0.00 55 1014.2
20260504233035 68 225 1.0 4.0 0.00 0.00 0.00 51 1014.2
20260504232524 68 0 0.0 4.0 0.00 0.00 0.00 53 1014.3
20260504232020 68 266 1.0 6.0 0.00 0.00 0.00 51 1014.2
20260504231549 68 0 1.0 6.0 0.00 0.00 0.00 49 1014.1
20260504231020 69 297 1.0 6.0 0.00 0.00 0.00 52 1014.0
20260504230524 69 229 1.0 6.0 0.00 0.00 0.00 50 1014.0
20260504230038 70 308 2.0 6.0 0.00 0.00 0.00 49 1014.0
20260504225525 70 25 1.0 5.0 0.00 0.00 0.00 49 1014.0
20260504225023 70 350 1.0 7.0 0.00 0.00 0.00 47 1014.0
20260504224540 71 0 1.0 7.0 0.00 0.00 0.00 47 1013.9
20260504224023 71 337 1.0 4.0 0.00 0.00 0.00 47 1013.9
20260504223524 71 332 1.0 5.0 0.00 0.00 0.00 46 1013.9
20260504223035 72 325 1.0 8.0 0.00 0.00 0.00 47 1013.9
20260504222523 72 31 1.0 8.0 0.00 0.00 0.00 47 1013.9
20260504222020 72 300 2.0 7.0 0.00 0.00 0.00 44 1014.0
20260504221540 72 50 1.0 5.0 0.00 0.00 0.00 44 1013.8
20260504221023 72 330 2.0 10.0 0.00 0.00 0.00 43 1013.8
20260504220520 72 283 3.0 10.0 0.00 0.00 0.00 43 1013.7
20260504220040 73 219 2.0 8.0 0.00 0.00 0.00 44 1013.7
20260504215521 73 200 2.0 11.0 0.00 0.00 0.00 42 1013.7
20260504215020 73 12 4.0 11.0 0.00 0.00 0.00 43 1013.7
20260504214537 73 266 2.0 8.0 0.00 0.00 0.00 42 1013.6
20260504214020 73 51 1.0 8.0 0.00 0.00 0.00 42 1013.6
20260504213520 74 357 2.0 5.0 0.00 0.00 0.00 41 1013.6
20260504213039 74 260 1.0 6.0 0.00 0.00 0.00 38 1013.6
20260504212521 74 52 2.0 8.0 0.00 0.00 0.00 38 1013.6
20260504212020 74 92 2.0 8.0 0.00 0.00 0.00 38 1013.7
20260504211536 75 281 2.0 8.0 0.00 0.00 0.00 39 1013.4
20260504211023 75 320 2.0 7.0 0.00 0.00 0.00 35 1013.6
20260504210523 75 25 1.0 5.0 0.00 0.00 0.00 34 1013.5
20260504210040 75 310 1.0 10.0 0.00 0.00 0.00 35 1013.6
20260504205524 75 353 2.0 10.0 0.00 0.00 0.00 31 1013.6
20260504205024 75 233 1.0 10.0 0.00 0.00 0.00 31 1013.5
20260504204538 76 70 2.0 10.0 0.00 0.00 0.00 33 1013.5
20260504204020 76 5 2.0 6.0 0.00 0.00 0.00 30 1013.5
20260504203520 77 308 2.0 7.0 0.00 0.00 0.00 31 1013.4
20260504203038 77 167 2.0 7.0 0.00 0.00 0.00 31 1013.5
20260504202520 77 298 3.0 7.0 0.00 0.00 0.00 31 1013.6
20260504202019 78 309 1.0 4.0 0.00 0.00 0.00 34 1013.7
20260504201536 77 0 0.0 4.0 0.00 0.00 0.00 35 1013.6
20260504201020 77 291 2.0 6.0 0.00 0.00 0.00 33 1013.6
20260504200524 76 74 1.0 7.0 0.00 0.00 0.00 39 1013.7
20260504200036 76 113 2.0 7.0 0.00 0.00 0.00 34 1013.8
20260504195523 76 113 1.0 5.0 0.00 0.00 0.00 33 1013.9
20260504195020 76 26 1.0 7.0 0.00 0.00 0.00 37 1014.0
20260504194549 76 12 1.0 7.0 0.00 0.00 0.00 36 1014.1
20260504194023 76 0 1.0 7.0 0.00 0.00 0.00 33 1014.2
20260504193521 75 212 1.0 7.0 0.00 0.00 0.00 38 1014.1
20260504193045 76 0 1.0 6.0 0.00 0.00 0.00 34 1014.3
20260504192520 76 27 1.0 4.0 0.00 0.00 0.00 38 1014.4
20260504192023 75 314 1.0 3.0 0.00 0.00 0.00 40 1014.4
20260504191604 75 356 0.0 5.0 0.00 0.00 0.00 45 1014.6
20260504191020 75 345 1.0 5.0 0.00 0.00 0.00 36 1014.7
20260504190520 75 0 2.0 8.0 0.00 0.00 0.00 37 1014.7
20260504190039 75 0 1.0 8.0 0.00 0.00 0.00 46 1014.8
20260504185523 75 153 1.0 8.0 0.00 0.00 0.00 44 1015.0
20260504185023 74 168 0.0 6.0 0.00 0.00 0.00 46 1015.0
20260504184554 74 0 1.0 6.0 0.00 0.00 0.00 42 1015.2
20260504184026 75 345 2.0 4.0 0.00 0.00 0.00 45 1015.3
20260504183526 74 181 0.0 3.0 0.00 0.00 0.00 45 1015.4
20260504183040 74 293 1.0 7.0 0.00 0.00 0.00 43 1015.3
20260504182529 73 0 1.0 7.0 0.00 0.00 0.00 46 1015.5
20260504182025 73 27 1.0 4.0 0.00 0.00 0.00 42 1015.5
20260504181541 73 221 1.0 6.0 0.00 0.00 0.00 40 1015.5
20260504181026 73 352 2.0 6.0 0.00 0.00 0.00 45 1015.5
20260504180525 73 14 1.0 4.0 0.00 0.00 0.00 42 1015.6
20260504180040 72 173 1.0 4.0 0.00 0.00 0.00 39 1015.5
20260504175527 72 295 1.0 7.0 0.00 0.00 0.00 43 1015.6
20260504175025 71 311 0.0 7.0 0.00 0.00 0.00 42 1015.8
20260504174535 71 275 1.0 4.0 0.00 0.00 0.00 39 1015.9
20260504174025 71 237 1.0 3.0 0.00 0.00 0.00 47 1016.0
20260504173526 71 15 1.0 7.0 0.00 0.00 0.00 42 1016.0
20260504173043 71 282 1.0 7.0 0.00 0.00 0.00 43 1016.1
20260504172525 71 0 1.0 4.0 0.00 0.00 0.00 42 1016.0
20260504172025 71 212 1.0 4.0 0.00 0.00 0.00 41 1016.1
20260504171542 71 240 1.0 4.0 0.00 0.00 0.00 45 1016.2
20260504171028 71 12 1.0 4.0 0.00 0.00 0.00 48 1016.2
20260504170529 70 0 1.0 5.0 0.00 0.00 0.00 49 1016.2